Location: Cahas Mountain Overlook
(37.0833°N, 80.1000°W)
Time: 11:17:28
(UTC-04:00)

A-11 Canister half - Pass Details

Date: 10 February 2026
Orbit: 1524 x 1683 km, 47.3° (Epoch: 16 March)

Event Time Altitude Azimuth Distance (km) Brightness Sun altitude
Rises 20:52:40 0° 274° (W) 4,675 12.5 -35.8°
Reaches altitude 10° 20:55:54 10° 281° (W) 3,689 11.8 -36.4°
Maximum altitude 21:04:44 46° 353° (N) 1,962 9.5 -38.2°
Enters shadow 21:05:22 46° 3° (N) 1,975 9.4 -38.3°
